Temp
10 10 10 10 9 9 9 9 9 9 9 9 9 9 9 9 9 9 9 9 9 9 9 9 9 9 9 9 9 9 9 9 9 8 8 8 8 8 8 8 8 8 8 8 8 8 8 8 8 8 8 8 8 9 9 9 8 8 8 8 8 8 8 8 9 9 9 9 8 9 8 8 8 8 8 7 8 8 8 8 8 8 8 8 8
10 10 10 10 10 9 9 9 9 9 9 9 9 9 9 9 9 9 9 9 9 9 9 9 9 9 9 9 9 9 9 9 8 8 8 8 8 8 8 8 8 8 8 8 8 8 8 8 8 8 8 8 8 8 9 9 9 9 9 9 8 8 8 8 9 8 9 9 8 8 8 8 8 8 8 8 8 8 8 8 8 7 7 8 8
10 10 10 10 10 10 9 9 9 9 9 9 9 9 9 9 9 9 9 9 9 9 9 9 9 9 9 9 9 9 9 9 8 8 8 8 8 8 8 8 8 8 8 8 8 8 8 8 8 8 9 9 9 9 9 9 9 9 9 9 8 8 8 9 9 8 8 9 8 8 8 8 8 8 8 8 8 8 8 8 8 7 7 8 8
10 10 10 10 10 10 10 9 9 9 9 9 9 9 9 9 9 9 9 9 9 9 9 9 9 9 9 9 9 9 9 9 8 8 8 8 8 8 8 8 8 8 8 8 8 8 8 8 8 9 9 9 9 9 9 9 9 8 8 8 8 8 9 9 9 8 8 9 9 8 8 8 8 8 8 8 8 8 8 8 7 8 8 8 8
10 10 10 10 10 10 10 9 9 9 9 9 9 9 9 9 9 9 9 9 9 9 9 9 9 9 9 9 9 9 9 9 8 8 8 8 8 8 8 8 8 8 8 8 8 8 8 9 9 9 9 9 9 9 9 9 9 9 8 8 8 8 9 9 9 9 8 9 9 8 8 8 8 8 8 8 8 8 8 8 7 8 8 8 8
10 10 10 10 10 10 10 9 9 9 9 9 9 9 9 9 9 9 9 9 9 9 9 9 9 9 9 9 9 9 9 9 8 8 8 8 8 8 8 8 8 8 8 8 8 9 9 9 9 9 9 9 9 9 9 9 9 9 8 8 8 8 8 9 9 8 8 8 9 9 8 8 8 8 8 8 7 7 8 8 8 7 7 8 8
10 10 10 10 10 10 9 9 9 9 9 9 9 9 9 9 9 9 9 9 9 9 9 9 9 9 9 9 9 9 9 9 8 8 8 8 8 8 8 8 9 9 9 9 9 9 9 9 9 9 9 9 9 9 9 9 9 9 8 8 8 8 8 8 8 8 8 8 9 9 8 8 8 8 8 8 8 7 8 8 8 8 7 7 8
10 10 10 10 10 10 9 9 9 9 9 9 9 9 9 9 9 9 9 9 9 9 9 9 9 9 9 9 9 9 9 9 9 9 8 8 8 9 9 9 9 9 9 9 9 9 9 9 9 9 9 9 9 9 9 9 9 9 8 8 8 8 8 8 8 8 8 8 9 9 8 9 8 8 8 8 8 8 8 8 8 8 7 7 7
10 10 10 10 10 10 9 9 9 9 9 9 9 9 9 9 9 9 9 9 9 9 9 9 9 9 9 9 9 9 9 9 9 9 8 8 9 9 9 9 9 9 9 9 9 9 9 9 9 9 9 9 9 9 9 9 8 9 8 8 8 8 8 9 8 8 8 8 8 9 8 8 8 8 8 8 8 8 8 7 8 8 7 7 7
10 10 10 10 10 10 9 9 9 9 9 9 9 9 9 9 9 9 9 9 9 9 9 9 9 9 9 9 9 9 9 9 9 9 9 9 9 8 8 9 9 9 9 9 9 9 9 9 9 9 9 9 9 9 9 9 9 8 8 8 8 8 8 9 9 8 8 8 8 8 8 8 8 8 8 8 8 8 8 7 8 8 7 7 7
10 10 10 10 10 10 9 9 9 9 9 9 9 9 9 9 9 9 9 9 9 9 9 9 9 9 9 9 9 9 9 9 9 9 9 9 8 8 9 9 9 9 9 9 9 9 9 9 9 9 9 9 9 9 9 9 9 9 9 9 9 9 9 9 9 9 9 9 8 8 8 8 8 9 8 8 8 8 8 8 8 8 7 8 7
10 10 10 10 10 10 10 9 9 9 9 9 9 9 9 9 9 9 9 9 9 9 9 9 9 9 9 9 9 9 9 9 9 9 8 8 9 9 9 9 10 9 9 9 9 9 9 9 9 9 9 9 9 9 9 9 9 9 9 9 9 9 9 9 8 9 9 9 8 8 8 8 8 9 9 9 8 8 8 8 8 8 8 8 8
10 10 10 10 10 10 10 10 9 9 9 9 9 9 9 9 9 9 9 9 9 9 9 9 9 9 9 9 9 9 9 9 9 9 9 8 9 9 9 10 10 9 9 9 9 9 9 9 9 9 9 9 9 9 9 9 9 9 9 9 9 9 9 9 8 8 8 8 8 8 8 8 8 9 9 9 8 8 8 8 8 8 8 8 8
10 10 10 10 10 10 10 10 10 10 9 9 9 9 9 9 9 9 9 9 9 9 9 9 9 9 9 9 9 9 9 9 9 9 9 9 9 9 9 10 9 9 9 9 9 9 9 9 9 9 9 9 9 9 9 9 9 9 9 9 9 9 9 9 8 8 8 8 8 8 8 8 8 9 9 9 9 8 8 8 8 8 7 8 8
11 10 10 10 10 10 10 10 10 10 10 10 9 9 9 9 10 10 10 10 10 10 10 9 9 9 9 9 9 9 9 9 8 9 9 9 9 9 9 9 9 9 9 9 9 9 9 9 9 9 9 9 9 9 9 9 9 9 9 9 9 9 9 8 8 8 8 8 8 9 8 9 9 9 9 9 9 8 8 8 8 8 8 8 8
10 10 10 10 10 10 10 10 10 10 10 10 10 10 10 10 10 10 10 10 10 10 9 9 9 9 9 9 9 9 9 8 8 9 9 9 9 9 9 9 9 8 9 9 9 10 9 9 9 9 9 9 9 9 9 9 9 9 9 9 9 9 9 8 8 8 9 9 8 8 8 9 9 9 9 9 9 9 8 8 8 8 8 8 8
10 10 10 10 10 10 10 10 10 10 10 10 10 10 10 10 10 10 10 10 10 10 9 9 9 9 9 9 9 9 9 9 9 9 9 9 9 9 9 9 9 8 9 9 9 9 9 9 9 9 9 9 8 8 9 9 9 9 9 9 9 9 9 8 8 8 9 8 8 8 8 8 9 9 9 9 9 9 9 8 8 9 8 8 8
11 11 10 10 10 10 10 10 10 10 10 10 10 10 10 10 10 10 10 10 10 10 9 9 9 9 9 9 9 9 9 9 9 9 9 9 9 9 9 9 9 9 9 9 9 9 9 9 9 9 9 9 8 8 8 9 9 9 9 9 9 9 9 8 8 8 8 8 8 8 8 8 8 9 9 9 9 9 9 9 8 9 9 8 8
10 10 10 10 10 10 10 10 10 10 10 10 10 10 10 10 10 10 10 10 10 10 9 9 9 9 9 9 9 9 9 9 9 9 9 9 9 9 9 9 9 9 9 9 9 9 9 9 9 9 9 9 9 9 9 9 9 9 9 9 9 9 8 8 8 8 8 8 8 8 8 8 8 8 8 9 9 9 9 9 9 9 8 8 8
10 10 10 10 10 10 10 10 10 10 10 10 10 10 10 10 10 10 10 10 10 10 9 9 9 9 9 9 9 9 9 9 9 9 9 9 9 9 9 9 9 9 9 9 9 9 9 9 9 9 9 9 9 8 8 9 8 8 9 9 9 9 8 8 8 8 8 8 8 8 8 8 8 8 8 8 9 9 9 9 9 9 9 8 8
10 10 10 10 10 10 10 10 10 10 10 10 10 10 10 10 10 10 10 10 10 9 9 9 9 9 9 9 9 9 9 9 9 9 9 9 9 9 9 9 9 9 9 8 8 9 8 8 8 8 8 8 8 8 8 8 8 8 8 8 9 8 8 8 8 8 8 8 8 8 8 8 8 8 8 8 8 8 9 9 9 9 9 8 8
11 10 10 10 10 10 10 10 10 10 10 10 10 10 10 10 10 10 10 10 9 9 9 9 9 9 9 9 9 9 9 9 9 9 9 9 9 9 9 9 9 9 9 8 8 8 8 8 8 8 8 8 8 8 8 8 8 8 8 8 8 8 8 9 9 8 8 8 8 8 8 8 8 8 8 8 8 8 9 9 9 9 9 9 8
11 11 11 10 10 10 10 10 10 10 10 10 10 10 10 10 10 10 10 10 9 9 9 9 9 9 9 9 9 9 9 9 9 9 9 9 9 9 9 9 9 9 9 9 8 8 8 8 8 8 8 8 8 8 8 8 8 8 8 8 8 8 8 8 8 8 9 8 8 8 8 8 8 8 8 8 8 8 8 8 9 9 9 9 9
11 11 11 11 11 10 10 10 10 10 10 10 10 10 10 10 10 10 10 9 9 9 9 9 9 9 9 9 9 9 9 9 9 9 9 9 9 9 9 9 9 9 9 9 9 9 8 8 8 8 8 8 9 9 9 8 8 8 8 8 8 8 8 8 8 8 9 9 8 8 8 8 8 8 8 8 8 8 8 8 8 9 9 9 9
11 11 11 11 11 11 10 10 10 10 10 10 10 10 10 10 10 10 10 9 9 9 9 9 9 9 9 9 9 9 9 9 9 9 9 9 9 9 9 9 9 9 9 9 9 9 9 9 9 9 9 9 9 9 8 8 8 8 8 8 8 8 8 8 8 8 9 9 8 8 9 8 8 8 8 8 8 8 8 8 8 8 9 9 9
11 11 11 11 11 11 10 10 10 10 10 10 10 10 10 10 10 10 10 9 9 9 9 9 9 9 9 9 9 9 9 9 9 9 9 9 9 9 9 9 9 9 9 9 9 9 9 9 9 9 9 9 9 8 8 8 8 9 9 8 8 8 8 8 8 8 8 9 8 8 8 8 8 8 8 8 8 8 8 8 8 8 8 9 9
11 11 11 11 11 11 10 10 10 10 10 10 10 10 10 10 10 10 10 9 9 9 9 9 9 9 10 10 9 9 9 9 9 9 9 9 9 9 9 9 9 9 9 9 9 9 9 9 9 9 8 8 8 8 8 8 8 9 8 9 9 9 9 9 9 8 8 9 8 8 8 8 8 8 8 8 8 8 8 8 8 8 8 8 9
11 11 11 11 11 11 11 10 10 10 10 10 10 10 10 10 10 10 10 10 9 9 9 9 9 9 9 10 9 9 9 9 9 9 9 9 9 9 9 9 9 9 9 9 9 9 9 9 9 9 8 8 8 8 8 8 8 8 9 9 9 9 9 9 9 9 8 9 9 8 8 8 8 8 8 8 8 8 8 8 8 7 8 8 8
11 11 11 11 11 11 11 10 10 10 10 10 10 10 10 10 10 10 10 10 9 9 9 9 9 9 9 10 10 9 9 9 9 9 9 9 9 9 9 9 9 9 9 9 9 9 9 9 9 9 8 8 8 8 8 8 8 8 9 9 9 9 9 9 9 9 8 8 9 8 8 8 8 8 8 8 8 8 8 8 8 8 8 8 8
11 11 11 11 11 11 11 10 10 10 10 10 10 10 10 10 10 10 10 10 9 9 9 9 9 9 9 10 10 9 9 9 9 9 9 9 9 9 9 9 9 9 9 9 9 9 9 9 9 9 9 8 8 8 8 8 8 8 9 9 8 9 9 9 9 9 8 8 9 9 8 8 8 8 9 9 8 8 8 8 8 8 8 8 8
11 11 11 11 11 11 11 11 11 10 10 10 10 10 10 10 10 10 10 10 10 9 9 9 9 10 10 10 10 9 9 9 9 9 9 9 9 9 9 9 9 9 9 9 9 9 9 9 9 9 8 8 8 9 8 8 8 9 9 9 8 8 9 9 9 9 8 8 9 8 8 8 8 8 8 9 9 8 8 8 8 8 8 8 8
11 12 12 11 11 11 11 11 11 11 10 10 10 10 10 10 10 10 10 10 10 10 10 10 10 10 10 10 10 10 9 9 9 9 9 9 9 9 9 9 9 9 9 9 10 10 9 9 9 9 8 9 9 9 9 8 9 9 9 8 8 8 8 8 9 8 8 8 8 8 8 8 8 8 8 9 9 8 8 8 8 8 8 8 8
12 12 12 12 11 11 11 11 11 11 11 11 11 10 10 10 10 10 10 10 10 10 10 10 10 10 10 10 10 10 10 9 9 9 9 9 9 9 9 9 9 9 9 10 10 9 9 9 9 9 9 9 9 9 9 9 9 9 9 8 8 8 8 8 8 8 8 8 8 8 8 8 8 8 8 8 9 9 9 8 8 8 8 8 8
12 12 12 12 12 12 11 11 11 11 11 11 11 11 10 10 10 10 10 10 10 10 10 10 10 10 10 10 10 10 10 10 9 9 10 9 10 10 10 9 9 9 10 10 9 9 9 9 9 9 9 9 9 9 9 9 9 9 9 8 8 8 8 8 8 8 8 8 8 8 9 9 9 9 9 8 8 9 9 9 8 8 8 8 8
12 12 12 12 12 12 12 12 12 11 11 11 11 11 11 10 10 10 10 10 10 10 10 10 10 10 10 10 10 10 10 10 10 10 10 10 10 10 10 10 9 9 9 9 9 9 9 9 9 9 9 9 9 9 9 9 9 9 9 8 8 8 8 8 8 8 8 8 8 8 8 8 8 9 8 8 9 9 9 9 9 9 8 8 7
13 12 12 12 12 12 12 12 12 11 11 11 11 11 11 10 10 10 10 10 10 10 10 10 10 10 10 10 10 10 10 10 10 10 10 10 10 10 10 10 10 9 9 9 9 9 9 9 9 9 9 9 8 8 9 9 9 9 9 9 8 8 8 8 8 8 7 8 8 8 8 8 8 8 8 8 9 9 9 9 9 9 9 8 8
13 13 12 12 12 12 12 12 12 11 11 11 11 11 11 10 10 10 10 10 10 10 10 10 10 10 10 10 10 10 10 10 10 10 10 10 10 10 9 9 10 10 10 10 9 10 10 9 9 9 9 8 8 9 10 9 9 9 9 9 9 8 8 8 8 8 8 8 8 8 8 8 8 8 8 8 8 8 8 8 9 9 9 8 8
13 13 13 13 12 12 12 12 12 11 11 11 11 11 11 11 10 10 10 10 10 10 10 10 10 10 10 10 10 10 10 10 10 10 10 10 10 10 10 9 10 10 10 10 10 9 9 9 9 9 9 8 9 10 10 10 10 10 9 9 8 8 8 8 8 8 8 8 8 8 8 8 8 8 8 8 8 8 8 8 8 9 9 9 8
14 13 13 13 13 12 12 12 12 12 11 11 11 11 11 11 11 10 10 10 10 10 10 10 10 10 10 10 10 10 10 10 10 10 10 10 10 10 10 10 10 10 9 9 9 9 9 9 9 9 9 9 10 10 10 10 10 10 9 9 9 8 8 8 8 8 7 7 8 7 6 7 8 8 8 8 8 8 8 8 8 8 8 8 8
14 14 13 13 13 13 12 12 12 12 12 11 11 11 11 11 11 11 11 10 10 10 10 10 10 10 10 10 10 10 10 10 10 10 10 10 10 10 10 10 9 9 9 9 9 9 9 9 9 9 9 10 10 10 10 9 9 9 9 9 9 8 7 8 8 8 7 7 7 7 6 7 8 8 8 8 8 8 8 8 8 8 8 8 8
14 14 14 13 13 13 13 13 13 12 12 12 11 11 11 11 11 11 11 10 10 10 10 10 10 10 10 10 10 10 10 10 10 10 10 10 10 10 10 10 10 10 10 9 9 9 9 9 9 10 10 10 10 10 10 10 9 9 8 9 8 8 7 7 7 7 7 6 6 7 7 7 8 8 8 7 7 7 7 7 7 7 8 8 8
14 14 14 14 13 13 13 13 13 13 12 12 11 11 11 11 11 11 11 10 10 10 10 10 10 10 10 10 10 10 10 10 10 10 10 10 10 10 10 10 10 9 10 10 10 10 10 10 10 10 10 10 10 10 10 10 9 8 8 8 8 7 7 7 7 7 6 6 5 6 7 8 8 8 8 7 7 7 7 7 7 7 7 7 7
14 14 14 14 14 14 14 13 13 13 13 12 12 11 11 11 11 11 10 10 10 10 10 10 10 10 10 10 10 10 10 10 10 10 10 10 10 10 10 10 10 10 11 11 11 11 10 10 10 10 10 10 10 10 10 10 9 8 8 8 8 7 7 6 6 6 5 5 5 5 8 9 8 8 8 8 8 7 7 7 7 7 7 7 7
14 14 14 14 14 14 14 14 13 13 13 13 12 11 11 11 11 11 10 10 10 10 10 10 10 10 10 10 10 10 10 10 10 10 10 10 10 10 11 11 11 11 11 11 11 11 11 10 10 10 10 10 10 10 10 10 9 9 8 8 7 7 7 6 6 6 5 5 4 6 8 9 8 8 8 8 8 8 8 7 7 7 7 7 7
14 14 14 14 14 14 14 14 13 13 13 13 12 11 11 11 11 11 10 10 10 10 10 10 10 10 10 10 10 10 10 10 10 10 10 11 11 11 11 11 11 11 11 11 11 11 11 11 10 10 10 10 10 10 10 10 9 9 9 8 8 7 7 6 6 6 6 5 4 6 8 8 8 8 8 8 8 8 8 8 8 7 7 7 7
14 14 14 14 14 14 14 13 13 13 13 13 12 11 11 11 11 11 11 10 10 10 10 10 10 10 10 10 10 10 10 10 11 11 11 11 11 11 11 11 11 11 11 11 11 11 11 11 11 11 10 10 10 10 10 10 9 9 9 9 8 7 7 6 6 6 6 6 5 5 7 8 8 8 8 8 8 8 8 8 8 7 7 7 7
14 14 14 14 14 14 13 13 13 13 13 13 12 12 11 11 11 11 11 11 11 10 10 10 10 10 10 10 10 10 11 11 11 11 11 11 11 11 11 11 11 11 11 11 11 11 11 11 11 11 10 10 10 10 10 10 9 9 9 9 8 8 7 6 6 7 6 6 6 5 6 7 8 8 8 8 8 8 8 8 7 7 7 7 7
14 14 14 14 14 14 13 13 13 13 13 13 13 12 12 12 11 11 11 11 11 11 10 10 10 10 10 10 10 10 11 11 11 11 11 11 11 11 11 11 11 11 11 11 11 11 11 11 11 11 10 10 10 10 10 10 9 9 9 9 9 8 7 7 7 7 6 6 6 5 4 5 6 7 8 7 7 7 7 7 7 7 7 7 7
14 14 14 13 13 13 13 13 13 13 13 13 13 13 12 12 11 11 11 11 11 11 10 10 11 11 11 11 11 11 11 11 11 11 11 11 11 11 11 11 11 11 11 11 11 11 11 11 11 10 10 10 10 10 10 9 9 9 9 9 9 8 8 7 7 7 7 7 6 5 4 5 5 5 6 7 7 7 7 7 7 7 7 7 7
14 14 14 13 13 13 13 13 13 14 14 13 13 13 13 12 12 11 11 11 11 11 11 11 11 11 11 11 11 11 11 11 11 11 11 11 11 11 11 11 11 11 11 11 11 11 11 11 11 11 10 10 10 10 10 9 9 9 9 9 8 8 8 7 7 7 7 7 7 5 5 5 4 4 5 5 6 7 7 7 7 6 7 7 7
15 14 14 14 13 14 14 14 14 14 14 14 14 13 13 13 12 12 12 11 12 12 12 11 11 11 11 11 11 11 11 11 11 11 11 11 11 11 11 11 11 11 11 11 11 11 11 11 11 11 10 10 10 10 10 9 9 9 9 9 8 8 8 8 7 7 7 7 7 6 5 4 4 4 4 5 6 7 6 6 6 6 6 6 6
Height
3173 3174 3175 3176 3177 3177 3177 3178 3179 3181 3182 3183 3184 3186 3188 3189 3190 3191 3192 3193 3194 3195 3196 3197 3199 3200 3202 3203 3203 3204 3205 3206 3207 3207 3207 3207 3207 3207 3207 3207 3207 3206 3206 3206 3206 3206 3206 3206 3206 3206 3205 3204 3203 3202 3201 3201 3201 3201 3201 3201 3201 3200 3199 3199 3198 3197 3196 3195 3194 3194 3192 3191 3191 3191 3191 3192 3193 3193 3194 3195 3196 3196 3196 3196 3196
3174 3175 3176 3177 3178 3178 3179 3180 3181 3182 3184 3185 3187 3188 3190 3191 3192 3193 3193 3194 3195 3196 3198 3199 3200 3202 3203 3204 3205 3206 3207 3207 3208 3208 3208 3208 3208 3208 3208 3208 3207 3207 3207 3207 3207 3207 3207 3207 3207 3206 3206 3205 3204 3203 3202 3202 3201 3201 3201 3201 3201 3201 3200 3200 3199 3198 3197 3196 3195 3195 3193 3193 3192 3192 3192 3192 3193 3194 3194 3195 3196 3196 3196 3196 3197
3175 3176 3177 3178 3179 3180 3181 3182 3183 3185 3186 3188 3189 3190 3191 3192 3193 3194 3195 3196 3197 3198 3200 3201 3202 3203 3204 3205 3206 3207 3208 3208 3209 3209 3209 3209 3209 3209 3209 3208 3208 3208 3209 3208 3208 3208 3208 3208 3207 3207 3206 3205 3205 3204 3203 3203 3202 3202 3202 3201 3201 3201 3201 3200 3200 3199 3198 3197 3196 3196 3195 3194 3194 3193 3193 3193 3193 3194 3195 3195 3196 3197 3197 3197 3198
3177 3178 3179 3180 3181 3182 3183 3184 3186 3187 3189 3190 3191 3192 3192 3193 3194 3195 3196 3197 3198 3200 3201 3202 3204 3205 3206 3206 3207 3208 3209 3209 3210 3210 3210 3210 3210 3209 3209 3209 3210 3210 3210 3210 3209 3209 3208 3208 3207 3207 3206 3205 3205 3205 3204 3204 3203 3203 3202 3202 3202 3202 3202 3201 3201 3200 3199 3198 3197 3197 3197 3196 3196 3195 3194 3194 3194 3194 3195 3196 3197 3197 3198 3198 3198
3179 3180 3180 3182 3183 3184 3185 3186 3188 3189 3190 3191 3192 3193 3194 3195 3196 3197 3198 3199 3200 3201 3203 3204 3205 3206 3207 3208 3208 3209 3210 3210 3210 3211 3211 3210 3210 3210 3210 3210 3211 3211 3211 3210 3210 3209 3208 3208 3208 3207 3207 3206 3205 3205 3205 3204 3204 3203 3203 3202 3202 3202 3202 3201 3201 3201 3201 3200 3199 3198 3198 3198 3198 3197 3196 3195 3195 3195 3196 3196 3197 3197 3198 3199 3199
3180 3181 3182 3183 3184 3186 3187 3188 3189 3190 3191 3192 3193 3194 3195 3196 3197 3198 3199 3201 3202 3203 3204 3205 3206 3207 3208 3209 3209 3210 3210 3211 3211 3211 3211 3211 3210 3210 3211 3211 3212 3212 3211 3211 3210 3209 3209 3208 3208 3208 3207 3207 3206 3205 3205 3204 3204 3204 3204 3203 3203 3203 3202 3202 3202 3201 3201 3201 3200 3200 3199 3199 3199 3199 3198 3197 3196 3197 3197 3198 3198 3198 3199 3199 3200
3182 3183 3184 3185 3186 3187 3188 3189 3191 3192 3192 3193 3194 3195 3196 3197 3199 3200 3201 3202 3203 3204 3205 3206 3207 3208 3209 3210 3210 3211 3211 3212 3212 3212 3212 3211 3211 3211 3211 3212 3213 3212 3212 3211 3211 3210 3209 3209 3208 3208 3208 3207 3206 3206 3205 3205 3204 3204 3204 3204 3204 3204 3203 3203 3203 3202 3202 3201 3201 3201 3201 3201 3200 3200 3199 3198 3198 3198 3198 3198 3199 3199 3199 3200 3200
3183 3185 3185 3186 3187 3188 3190 3191 3192 3193 3193 3194 3195 3196 3197 3199 3200 3201 3202 3203 3204 3205 3206 3207 3208 3209 3210 3211 3211 3211 3212 3212 3212 3212 3212 3211 3211 3211 3212 3213 3213 3212 3212 3211 3211 3210 3210 3209 3208 3208 3208 3207 3207 3206 3206 3205 3205 3204 3204 3204 3204 3204 3204 3204 3203 3203 3202 3202 3202 3201 3201 3201 3201 3201 3200 3200 3199 3199 3199 3199 3200 3200 3200 3201 3201
3184 3185 3187 3188 3189 3190 3191 3192 3193 3194 3195 3196 3197 3198 3199 3200 3201 3202 3203 3204 3205 3206 3207 3208 3209 3210 3210 3211 3212 3212 3212 3212 3212 3212 3212 3211 3211 3212 3212 3213 3213 3212 3212 3211 3211 3211 3210 3209 3209 3208 3208 3208 3207 3207 3206 3206 3205 3205 3205 3204 3204 3204 3204 3204 3204 3203 3203 3203 3202 3202 3201 3202 3201 3201 3201 3200 3200 3200 3200 3200 3200 3201 3201 3201 3201
3186 3187 3188 3189 3190 3191 3192 3193 3194 3195 3196 3197 3198 3199 3200 3201 3202 3203 3204 3205 3206 3207 3208 3209 3209 3210 3211 3212 3212 3212 3213 3213 3213 3212 3212 3212 3211 3212 3212 3213 3213 3212 3212 3212 3212 3211 3211 3210 3209 3209 3209 3208 3208 3207 3207 3206 3206 3205 3205 3205 3205 3204 3204 3204 3204 3204 3203 3203 3203 3202 3202 3202 3202 3202 3202 3201 3201 3201 3201 3201 3201 3202 3202 3202 3202
3187 3188 3189 3190 3191 3191 3193 3194 3195 3196 3197 3198 3199 3200 3201 3202 3203 3204 3205 3206 3207 3208 3209 3209 3210 3211 3212 3212 3213 3213 3213 3213 3213 3212 3212 3212 3212 3212 3212 3213 3213 3212 3212 3212 3212 3212 3211 3211 3210 3210 3209 3209 3208 3208 3207 3206 3206 3206 3206 3205 3205 3205 3204 3204 3204 3203 3204 3203 3203 3203 3202 3202 3202 3202 3202 3202 3201 3201 3201 3201 3202 3202 3202 3202 3203
3188 3189 3190 3191 3192 3193 3194 3195 3196 3198 3199 3200 3200 3201 3203 3204 3204 3205 3206 3207 3208 3209 3209 3210 3210 3211 3212 3213 3213 3214 3214 3213 3213 3213 3213 3213 3213 3213 3213 3213 3213 3213 3212 3212 3212 3212 3212 3212 3211 3210 3210 3209 3209 3208 3208 3207 3207 3207 3206 3206 3206 3205 3205 3204 3204 3203 3204 3203 3202 3202 3202 3203 3203 3203 3203 3203 3202 3202 3202 3202 3202 3202 3203 3203 3203
3189 3190 3191 3192 3193 3194 3195 3197 3198 3199 3200 3201 3201 3203 3204 3205 3205 3206 3207 3208 3208 3209 3210 3210 3211 3212 3213 3214 3214 3214 3214 3213 3213 3213 3213 3213 3213 3214 3214 3214 3213 3213 3212 3212 3212 3212 3212 3212 3212 3211 3210 3210 3209 3209 3208 3208 3207 3207 3207 3207 3206 3206 3205 3204 3204 3204 3204 3204 3202 3202 3203 3203 3204 3203 3203 3203 3203 3203 3203 3203 3203 3203 3203 3203 3203
3191 3192 3193 3194 3195 3196 3197 3198 3199 3199 3200 3201 3202 3204 3205 3205 3206 3207 3207 3208 3209 3209 3210 3211 3212 3213 3213 3214 3214 3214 3214 3214 3214 3213 3213 3213 3214 3214 3214 3214 3214 3213 3212 3212 3212 3212 3212 3212 3212 3211 3211 3210 3210 3209 3209 3208 3208 3208 3207 3207 3206 3206 3206 3205 3204 3204 3205 3205 3205 3205 3204 3204 3204 3204 3203 3203 3204 3204 3204 3204 3204 3203 3203 3203 3204
3193 3193 3194 3195 3196 3197 3198 3199 3200 3201 3202 3202 3203 3204 3205 3206 3207 3207 3208 3208 3209 3210 3211 3211 3212 3213 3214 3214 3215 3215 3215 3214 3214 3214 3214 3214 3214 3214 3215 3215 3215 3214 3213 3212 3212 3212 3212 3212 3212 3212 3211 3210 3210 3209 3209 3209 3208 3208 3208 3207 3207 3206 3206 3205 3205 3204 3206 3207 3207 3206 3205 3205 3205 3204 3203 3203 3203 3204 3205 3205 3204 3204 3204 3204 3204
3194 3195 3195 3196 3197 3198 3199 3200 3201 3202 3203 3203 3204 3205 3206 3207 3207 3208 3208 3209 3210 3211 3212 3212 3213 3214 3214 3215 3215 3215 3215 3215 3215 3215 3215 3214 3214 3214 3215 3215 3215 3215 3214 3213 3213 3213 3213 3212 3212 3212 3211 3210 3210 3210 3210 3209 3209 3208 3208 3207 3207 3206 3206 3205 3205 3206 3207 3207 3207 3206 3205 3205 3205 3204 3204 3203 3203 3204 3204 3205 3205 3205 3204 3204 3204
3195 3196 3197 3197 3198 3199 3200 3201 3201 3202 3203 3204 3205 3206 3206 3207 3208 3209 3209 3210 3211 3212 3212 3213 3214 3214 3215 3215 3215 3216 3216 3216 3216 3216 3215 3214 3214 3214 3215 3215 3215 3215 3215 3214 3213 3213 3213 3213 3213 3212 3212 3211 3211 3210 3210 3210 3209 3209 3208 3208 3207 3207 3206 3205 3205 3207 3208 3206 3205 3205 3204 3204 3204 3204 3204 3203 3204 3204 3204 3205 3205 3205 3205 3205 3205
3196 3197 3198 3199 3199 3200 3201 3201 3202 3203 3204 3205 3206 3207 3208 3208 3209 3210 3210 3211 3212 3212 3213 3214 3214 3215 3215 3215 3216 3216 3216 3216 3216 3216 3215 3215 3214 3215 3215 3215 3215 3215 3215 3215 3214 3214 3214 3213 3213 3213 3212 3212 3211 3211 3210 3210 3210 3209 3209 3208 3207 3207 3206 3205 3203 3204 3206 3205 3205 3205 3204 3204 3204 3204 3204 3204 3204 3204 3204 3204 3205 3205 3206 3205 3205
3197 3198 3199 3200 3200 3201 3201 3202 3203 3204 3205 3206 3207 3208 3208 3209 3210 3210 3211 3212 3212 3213 3214 3214 3215 3215 3215 3216 3216 3216 3216 3217 3216 3216 3216 3215 3215 3215 3215 3215 3215 3216 3216 3216 3215 3215 3214 3214 3213 3213 3213 3212 3212 3211 3211 3210 3210 3209 3209 3208 3208 3207 3205 3204 3203 3202 3204 3204 3204 3204 3204 3204 3204 3204 3204 3204 3204 3204 3204 3204 3205 3205 3206 3206 3205
3198 3199 3200 3200 3201 3201 3202 3203 3204 3205 3206 3207 3207 3208 3209 3210 3210 3211 3212 3212 3213 3214 3214 3214 3215 3215 3216 3216 3216 3216 3217 3217 3217 3216 3216 3216 3215 3215 3215 3215 3215 3216 3216 3216 3215 3215 3215 3214 3213 3213 3213 3212 3212 3211 3211 3210 3210 3209 3209 3208 3207 3207 3205 3204 3203 3201 3203 3204 3204 3204 3204 3204 3204 3205 3205 3205 3205 3204 3204 3204 3204 3205 3206 3206 3206
3199 3200 3200 3201 3201 3202 3203 3204 3204 3205 3206 3207 3208 3208 3209 3210 3211 3212 3212 3213 3213 3214 3214 3214 3215 3215 3216 3216 3216 3217 3217 3217 3217 3217 3216 3216 3215 3215 3215 3215 3215 3215 3216 3216 3215 3215 3215 3214 3214 3214 3213 3213 3212 3211 3211 3210 3209 3209 3208 3208 3207 3206 3205 3204 3202 3200 3203 3203 3204 3204 3204 3204 3204 3204 3205 3205 3205 3204 3204 3204 3204 3205 3205 3206 3206
3199 3200 3201 3201 3202 3203 3203 3204 3205 3206 3206 3207 3208 3209 3209 3210 3211 3212 3212 3213 3213 3214 3214 3215 3215 3215 3216 3216 3217 3217 3217 3218 3217 3217 3216 3216 3216 3215 3215 3215 3215 3215 3215 3215 3215 3215 3214 3214 3214 3214 3213 3212 3212 3211 3211 3210 3209 3209 3208 3208 3207 3207 3205 3204 3202 3201 3203 3204 3204 3205 3204 3204 3204 3204 3205 3204 3204 3204 3204 3204 3204 3204 3205 3205 3206
3199 3200 3201 3202 3203 3203 3204 3204 3205 3206 3207 3207 3208 3209 3210 3211 3211 3212 3213 3213 3213 3214 3214 3215 3215 3216 3216 3216 3217 3216 3216 3217 3217 3217 3216 3216 3216 3216 3216 3215 3215 3215 3215 3215 3215 3215 3214 3214 3214 3213 3213 3212 3212 3211 3210 3210 3209 3208 3208 3208 3207 3206 3205 3205 3203 3200 3204 3206 3204 3205 3205 3204 3204 3204 3205 3204 3204 3204 3204 3204 3204 3204 3204 3205 3205
3200 3200 3201 3202 3203 3204 3204 3205 3206 3206 3207 3208 3209 3210 3210 3211 3211 3212 3213 3213 3214 3214 3215 3215 3215 3216 3216 3216 3216 3216 3215 3215 3216 3216 3216 3216 3216 3216 3216 3216 3216 3215 3215 3215 3214 3214 3214 3214 3214 3213 3212 3212 3211 3211 3210 3209 3208 3208 3207 3207 3206 3206 3205 3205 3204 3201 3204 3206 3205 3204 3205 3204 3204 3204 3204 3204 3204 3204 3204 3204 3205 3205 3205 3205 3205
3200 3201 3201 3202 3203 3204 3204 3205 3206 3206 3207 3208 3209 3210 3210 3211 3212 3212 3213 3213 3214 3214 3215 3215 3215 3216 3216 3216 3216 3216 3216 3216 3216 3216 3216 3216 3216 3216 3216 3216 3216 3216 3215 3215 3214 3214 3214 3213 3213 3213 3212 3211 3211 3210 3210 3209 3208 3208 3207 3206 3205 3205 3205 3204 3204 3203 3204 3204 3204 3204 3204 3204 3204 3204 3204 3204 3204 3204 3204 3204 3204 3205 3205 3205 3205
3200 3201 3202 3203 3203 3204 3205 3205 3206 3207 3208 3208 3209 3210 3210 3211 3212 3212 3213 3213 3214 3214 3215 3215 3215 3215 3216 3216 3216 3216 3216 3216 3216 3216 3216 3216 3216 3216 3216 3216 3216 3216 3216 3215 3215 3214 3214 3213 3213 3213 3212 3211 3211 3210 3209 3209 3208 3207 3206 3206 3205 3204 3204 3203 3203 3204 3203 3203 3203 3203 3203 3203 3203 3203 3204 3204 3204 3204 3204 3204 3204 3205 3205 3205 3205
3200 3201 3202 3202 3203 3204 3204 3205 3206 3207 3208 3208 3209 3210 3210 3211 3212 3212 3213 3213 3214 3214 3215 3215 3215 3215 3216 3216 3216 3216 3216 3216 3216 3216 3216 3216 3216 3216 3215 3216 3216 3216 3216 3215 3215 3214 3213 3213 3213 3212 3212 3211 3210 3209 3209 3208 3207 3206 3205 3205 3204 3204 3203 3203 3202 3203 3203 3202 3202 3202 3202 3202 3202 3203 3203 3203 3204 3204 3203 3204 3204 3204 3204 3205 3205
3200 3201 3202 3202 3203 3204 3204 3205 3206 3207 3207 3208 3209 3210 3210 3211 3212 3212 3213 3213 3214 3214 3214 3215 3215 3215 3215 3216 3216 3216 3216 3216 3216 3216 3216 3216 3216 3215 3215 3215 3215 3215 3215 3214 3214 3213 3212 3212 3212 3212 3211 3211 3210 3209 3208 3207 3206 3205 3204 3204 3203 3203 3202 3202 3201 3201 3201 3200 3200 3201 3201 3202 3202 3202 3202 3203 3203 3203 3203 3203 3203 3204 3204 3204 3204
3200 3201 3202 3202 3203 3204 3204 3205 3206 3207 3207 3208 3209 3210 3210 3211 3211 3212 3212 3213 3213 3214 3214 3214 3215 3215 3215 3215 3215 3216 3216 3216 3216 3215 3215 3215 3215 3215 3214 3214 3214 3214 3213 3213 3213 3212 3212 3212 3212 3212 3211 3211 3210 3209 3207 3206 3205 3204 3203 3203 3202 3202 3201 3201 3200 3200 3200 3199 3199 3200 3200 3201 3201 3201 3202 3202 3202 3202 3202 3202 3203 3203 3204 3204 3204
3199 3200 3201 3202 3203 3204 3204 3205 3206 3206 3207 3208 3209 3209 3210 3211 3211 3212 3212 3213 3213 3213 3214 3214 3214 3214 3214 3215 3215 3215 3215 3215 3215 3215 3215 3215 3215 3214 3214 3213 3213 3213 3212 3212 3212 3211 3211 3211 3211 3211 3211 3210 3209 3208 3207 3205 3205 3204 3202 3202 3202 3201 3201 3200 3200 3199 3198 3198 3198 3199 3199 3199 3200 3200 3201 3201 3201 3201 3201 3201 3202 3203 3203 3203 3203
3199 3200 3201 3201 3202 3203 3204 3205 3206 3206 3207 3208 3208 3209 3210 3210 3211 3211 3212 3212 3212 3213 3213 3214 3214 3214 3214 3214 3215 3215 3215 3215 3214 3215 3215 3214 3214 3214 3213 3213 3213 3213 3213 3212 3212 3211 3211 3211 3210 3210 3209 3209 3208 3207 3206 3205 3204 3203 3201 3201 3201 3200 3200 3199 3199 3198 3198 3197 3197 3198 3198 3198 3199 3199 3200 3200 3200 3200 3200 3201 3201 3202 3202 3202 3202
3198 3199 3200 3201 3202 3203 3203 3204 3205 3206 3207 3207 3208 3209 3209 3210 3210 3211 3211 3212 3212 3212 3213 3213 3213 3213 3213 3214 3214 3214 3214 3214 3214 3214 3214 3214 3214 3214 3213 3213 3213 3213 3212 3212 3211 3211 3211 3210 3210 3209 3209 3208 3207 3206 3205 3204 3203 3202 3201 3200 3200 3200 3199 3199 3198 3198 3197 3197 3197 3197 3197 3197 3198 3198 3198 3199 3199 3199 3199 3200 3200 3200 3201 3201 3201
3198 3199 3199 3200 3201 3202 3203 3204 3205 3205 3206 3207 3207 3208 3209 3209 3210 3210 3211 3211 3211 3212 3212 3213 3213 3213 3213 3213 3213 3213 3213 3213 3213 3214 3213 3213 3213 3213 3213 3213 3213 3212 3212 3211 3211 3211 3210 3210 3209 3209 3208 3207 3207 3206 3204 3204 3202 3202 3201 3200 3200 3199 3199 3198 3198 3197 3197 3197 3197 3197 3197 3197 3197 3197 3198 3198 3198 3198 3198 3198 3199 3199 3199 3200 3200
3197 3198 3199 3200 3201 3202 3202 3203 3204 3205 3206 3206 3207 3207 3208 3209 3209 3210 3210 3210 3211 3211 3212 3212 3212 3212 3212 3212 3212 3212 3213 3213 3213 3213 3212 3212 3212 3212 3212 3212 3212 3212 3211 3211 3210 3210 3209 3210 3209 3208 3207 3206 3206 3205 3204 3203 3202 3201 3201 3200 3200 3199 3199 3198 3198 3197 3197 3197 3196 3196 3196 3196 3196 3197 3197 3197 3197 3197 3197 3198 3198 3198 3198 3198 3199
3196 3197 3198 3199 3200 3201 3202 3202 3203 3204 3205 3205 3206 3207 3207 3208 3208 3209 3209 3210 3210 3210 3211 3211 3211 3211 3211 3211 3212 3212 3212 3212 3212 3212 3211 3211 3211 3211 3211 3211 3212 3211 3210 3210 3210 3209 3208 3208 3208 3207 3205 3205 3204 3204 3203 3202 3201 3201 3200 3199 3199 3199 3198 3198 3198 3197 3197 3196 3196 3196 3196 3196 3195 3196 3196 3196 3196 3196 3196 3196 3197 3197 3197 3197 3198
3195 3196 3197 3198 3199 3200 3201 3202 3202 3203 3204 3204 3205 3206 3206 3207 3207 3208 3208 3209 3209 3209 3210 3210 3210 3210 3210 3210 3211 3211 3211 3211 3211 3211 3210 3210 3210 3211 3210 3210 3211 3210 3210 3210 3209 3208 3207 3207 3207 3206 3204 3204 3203 3202 3202 3200 3199 3200 3200 3199 3199 3198 3198 3198 3198 3197 3197 3196 3196 3196 3196 3196 3195 3195 3195 3195 3195 3195 3195 3195 3195 3196 3196 3196 3197
3194 3195 3196 3197 3198 3199 3200 3201 3201 3202 3203 3203 3204 3204 3205 3206 3206 3207 3207 3207 3208 3209 3209 3209 3209 3209 3209 3209 3210 3210 3210 3210 3210 3210 3210 3209 3209 3210 3209 3209 3210 3210 3210 3210 3208 3207 3207 3206 3205 3204 3203 3203 3202 3201 3200 3199 3198 3198 3199 3198 3198 3197 3197 3197 3197 3197 3196 3196 3196 3196 3196 3196 3195 3195 3195 3195 3194 3194 3194 3194 3194 3194 3195 3195 3195
3192 3194 3195 3195 3197 3198 3199 3199 3200 3201 3201 3202 3203 3203 3204 3204 3205 3205 3206 3206 3207 3208 3208 3208 3208 3208 3209 3208 3209 3209 3209 3210 3210 3209 3209 3209 3209 3208 3208 3208 3208 3209 3209 3208 3207 3206 3206 3205 3204 3203 3202 3201 3200 3200 3199 3198 3197 3197 3197 3197 3197 3197 3197 3197 3197 3196 3196 3196 3196 3196 3196 3195 3195 3195 3195 3195 3194 3194 3193 3193 3193 3193 3193 3194 3194
3191 3192 3193 3194 3195 3196 3197 3198 3198 3199 3200 3200 3201 3202 3203 3203 3204 3204 3205 3205 3206 3206 3207 3207 3208 3208 3208 3208 3208 3208 3208 3209 3209 3208 3208 3208 3208 3208 3207 3207 3207 3207 3207 3206 3205 3205 3204 3203 3202 3202 3201 3200 3199 3198 3198 3197 3197 3197 3196 3196 3196 3196 3196 3197 3196 3196 3196 3195 3196 3196 3195 3195 3194 3195 3195 3194 3194 3194 3193 3193 3193 3193 3193 3193 3193
3190 3191 3192 3193 3193 3194 3195 3196 3197 3197 3198 3199 3200 3200 3201 3202 3203 3203 3204 3204 3205 3205 3206 3206 3207 3207 3206 3206 3207 3207 3207 3207 3207 3207 3207 3207 3207 3207 3206 3206 3206 3206 3205 3204 3203 3203 3202 3201 3201 3200 3199 3198 3198 3197 3197 3196 3196 3196 3195 3195 3195 3195 3196 3196 3196 3195 3195 3195 3195 3195 3194 3194 3194 3194 3194 3194 3193 3193 3193 3193 3193 3193 3193 3192 3192
3188 3189 3190 3191 3192 3193 3193 3194 3195 3196 3196 3197 3198 3199 3200 3201 3201 3202 3203 3203 3204 3204 3205 3205 3206 3206 3205 3205 3206 3206 3206 3206 3206 3206 3206 3206 3205 3205 3205 3204 3204 3204 3204 3202 3202 3201 3201 3200 3199 3198 3198 3197 3196 3196 3196 3195 3194 3194 3194 3194 3194 3194 3195 3195 3195 3194 3194 3194 3194 3194 3193 3193 3193 3193 3193 3193 3192 3192 3192 3192 3192 3192 3192 3191 3191
3186 3187 3188 3189 3190 3191 3192 3193 3193 3194 3195 3196 3197 3198 3199 3199 3200 3201 3202 3202 3202 3203 3204 3204 3205 3204 3204 3204 3205 3205 3205 3205 3204 3204 3205 3204 3204 3203 3203 3203 3202 3202 3202 3201 3200 3200 3199 3199 3198 3197 3196 3196 3195 3194 3194 3194 3193 3193 3194 3194 3194 3194 3194 3194 3194 3194 3194 3194 3193 3192 3191 3192 3192 3192 3192 3192 3192 3191 3191 3191 3191 3191 3191 3191 3191
3184 3186 3187 3188 3189 3189 3190 3191 3192 3192 3193 3194 3195 3196 3197 3198 3199 3200 3200 3201 3201 3202 3202 3203 3203 3203 3203 3203 3204 3203 3204 3203 3203 3204 3204 3203 3203 3202 3202 3202 3201 3201 3200 3200 3200 3199 3198 3198 3197 3196 3196 3195 3194 3193 3193 3193 3192 3193 3193 3193 3193 3193 3193 3194 3193 3193 3194 3193 3193 3191 3190 3190 3191 3191 3191 3191 3191 3191 3190 3190 3190 3190 3190 3190 3190
3182 3183 3184 3186 3187 3188 3189 3189 3190 3191 3191 3192 3193 3195 3196 3196 3197 3198 3198 3199 3200 3200 3201 3201 3202 3202 3202 3202 3203 3203 3202 3202 3202 3202 3203 3202 3202 3202 3201 3201 3201 3200 3200 3200 3199 3198 3197 3197 3196 3195 3195 3194 3193 3192 3192 3192 3192 3192 3192 3192 3192 3193 3193 3193 3192 3192 3192 3192 3192 3190 3189 3189 3190 3190 3190 3190 3189 3189 3189 3189 3189 3189 3188 3188 3188
3179 3181 3182 3183 3185 3186 3187 3188 3188 3189 3190 3191 3192 3193 3194 3194 3195 3196 3197 3198 3199 3200 3200 3201 3201 3202 3202 3201 3201 3202 3201 3201 3201 3201 3201 3201 3201 3201 3201 3201 3201 3200 3200 3199 3198 3197 3196 3196 3195 3195 3194 3194 3193 3192 3191 3191 3191 3191 3191 3191 3192 3192 3192 3192 3192 3191 3191 3191 3192 3190 3188 3188 3188 3189 3189 3188 3188 3188 3187 3188 3187 3187 3187 3187 3186
3177 3179 3180 3181 3183 3184 3185 3186 3187 3188 3188 3189 3190 3191 3192 3193 3194 3195 3196 3197 3198 3199 3199 3200 3200 3200 3201 3201 3201 3201 3201 3201 3200 3200 3200 3201 3201 3201 3201 3200 3200 3199 3199 3198 3197 3196 3196 3195 3194 3194 3193 3193 3192 3192 3191 3191 3190 3190 3190 3190 3191 3191 3191 3191 3191 3191 3190 3190 3190 3189 3188 3187 3187 3188 3187 3187 3187 3186 3186 3186 3186 3186 3185 3185 3185
3175 3177 3178 3179 3180 3181 3183 3184 3185 3185 3186 3187 3188 3189 3190 3191 3192 3194 3195 3195 3197 3197 3198 3199 3199 3199 3200 3200 3200 3200 3200 3200 3200 3200 3201 3201 3201 3201 3200 3200 3199 3199 3198 3198 3197 3196 3195 3194 3193 3193 3192 3192 3192 3191 3191 3190 3190 3189 3189 3189 3190 3190 3190 3190 3190 3189 3189 3189 3189 3188 3188 3186 3186 3186 3186 3185 3185 3185 3185 3184 3184 3184 3184 3184 3183
3172 3174 3175 3176 3177 3179 3180 3181 3182 3183 3184 3185 3186 3187 3188 3189 3191 3192 3193 3194 3195 3196 3197 3197 3197 3198 3199 3199 3199 3200 3200 3200 3200 3200 3201 3201 3201 3200 3200 3199 3199 3199 3198 3198 3197 3196 3195 3194 3193 3192 3191 3191 3191 3191 3190 3190 3189 3189 3188 3188 3188 3189 3189 3189 3189 3188 3188 3188 3188 3188 3188 3186 3185 3184 3184 3183 3183 3183 3183 3183 3183 3182 3182 3182 3182
3169 3170 3172 3174 3175 3176 3178 3179 3180 3181 3182 3183 3184 3185 3186 3188 3189 3190 3191 3193 3194 3195 3195 3196 3196 3197 3198 3198 3199 3199 3199 3200 3200 3200 3201 3201 3200 3200 3200 3199 3199 3198 3198 3197 3196 3195 3194 3193 3192 3192 3191 3190 3190 3189 3189 3189 3188 3188 3188 3187 3187 3187 3187 3187 3187 3187 3187 3187 3187 3187 3187 3187 3185 3183 3182 3182 3181 3181 3181 3181 3181 3181 3180 3180 3180
3167 3168 3169 3171 3172 3173 3175 3176 3177 3179 3180 3181 3182 3183 3185 3186 3187 3189 3190 3191 3192 3193 3194 3194 3195 3196 3197 3197 3198 3198 3199 3199 3200 3200 3200 3200 3200 3200 3199 3199 3199 3198 3197 3197 3196 3195 3194 3193 3192 3191 3191 3190 3189 3188 3188 3188 3187 3187 3187 3187 3186 3186 3186 3186 3185 3186 3185 3186 3186 3186 3186 3186 3185 3182 3181 3180 3180 3179 3179 3179 3179 3179 3178 3178 3178
3164 3165 3166 3167 3168 3170 3172 3173 3175 3176 3178 3179 3180 3182 3183 3184 3186 3187 3188 3189 3190 3191 3192 3193 3194 3195 3196 3197 3197 3197 3198 3199 3199 3199 3199 3199 3199 3199 3199 3198 3198 3197 3197 3196 3195 3194 3193 3193 3192 3191 3190 3189 3188 3187 3187 3187 3186 3186 3186 3185 3185 3185 3185 3184 3184 3184 3184 3184 3184 3184 3184 3184 3183 3182 3180 3178 3178 3178 3177 3177 3177 3176 3176 3176 3175
Wind_Speed
19 22 25 26 25 23 24 23 22 22 23 24 24 24 24 24 23 22 21 21 22 23 25 27 28 27 25 23 22 21 19 17 16 15 14 12 11 10 9 10 10 10 10 10 10 10 11 11 11 11 11 12 11 10 8 7 6 6 6 6 7 8 9 11 15 16 15 13 13 12 11 9 5 2 7 7 7 7 7 6 4 3 2 2 2
21 23 24 24 24 24 24 24 24 23 23 25 25 24 24 24 23 22 22 23 23 24 25 27 28 26 24 22 21 20 17 16 14 13 11 10 9 8 9 10 10 10 10 9 9 10 10 10 10 10 11 11 11 10 8 6 5 4 4 4 5 6 7 9 13 16 16 13 12 13 14 13 8 4 6 7 7 7 8 6 4 4 4 5 5
22 23 24 23 23 24 24 23 24 24 24 24 24 24 24 23 22 22 22 23 24 24 25 26 26 24 22 22 20 18 16 14 12 11 9 8 7 7 8 9 10 10 9 9 9 9 10 10 11 10 10 10 9 9 8 6 4 4 3 3 3 4 5 7 11 15 15 13 11 12 14 13 11 8 5 6 7 7 8 7 5 6 7 7 7
22 23 24 23 22 23 23 23 23 24 24 24 23 23 23 22 21 22 22 23 24 24 24 25 24 22 21 20 18 16 14 12 11 9 8 6 6 7 8 9 10 9 9 8 9 9 9 9 10 10 9 8 8 8 7 6 4 4 3 3 3 3 4 6 9 12 14 12 11 11 13 13 12 10 9 9 8 8 9 9 8 9 9 9 9
21 23 23 22 22 22 23 23 23 23 24 23 23 22 22 22 21 22 22 22 23 23 23 23 22 21 19 18 16 14 12 11 9 8 6 5 6 7 8 9 9 9 9 8 8 8 8 8 9 9 9 8 7 6 6 5 4 4 3 4 3 3 3 4 7 10 12 12 11 11 12 12 11 10 11 12 13 13 13 11 10 10 10 9 9
20 21 21 21 21 22 23 23 23 23 23 23 23 22 22 22 22 22 23 22 23 23 23 22 21 19 18 16 14 12 11 9 8 6 5 5 6 6 7 8 8 8 8 7 7 7 7 8 8 8 8 7 7 6 5 5 5 4 3 4 4 4 4 4 7 8 10 12 11 10 10 9 10 10 10 12 13 13 13 13 11 11 12 10 10
20 20 20 20 21 22 23 23 23 23 23 23 23 22 22 22 22 23 23 23 22 22 21 21 19 18 16 14 12 11 9 8 7 6 6 6 5 6 6 7 7 7 7 6 5 6 6 7 7 7 7 6 7 6 5 5 5 5 4 4 4 4 4 4 6 7 8 10 10 9 8 7 8 10 10 12 13 13 12 12 11 11 11 11 10
20 20 20 20 21 22 22 23 23 23 23 23 23 23 23 22 22 22 22 22 21 20 19 19 18 16 15 13 12 10 9 8 7 7 7 6 5 5 6 6 6 6 5 4 5 5 6 6 6 6 6 6 7 7 6 5 5 5 5 4 3 4 4 4 5 6 6 9 9 8 8 6 6 8 10 11 12 13 12 12 11 10 10 10 10
19 20 20 21 21 21 21 22 22 22 23 23 23 22 22 22 21 21 21 20 19 18 17 16 16 14 14 12 11 10 9 8 8 8 7 6 5 5 5 5 5 5 4 4 6 6 6 6 6 6 6 6 7 7 6 5 5 5 5 4 3 3 3 3 4 5 5 8 10 9 9 7 5 6 9 11 12 12 12 11 11 9 9 10 9
19 19 20 20 21 20 20 20 21 21 21 22 22 21 20 20 20 20 19 18 17 17 16 15 14 14 13 12 11 10 10 9 9 8 7 5 4 4 3 3 4 4 4 6 7 7 7 7 6 7 7 7 7 7 7 5 4 4 4 4 3 3 3 3 4 5 5 6 9 10 9 7 5 4 7 10 11 11 10 10 10 9 8 9 8
18 18 19 20 20 19 19 19 19 19 20 20 20 19 19 18 18 18 18 17 17 16 15 14 14 13 12 12 11 11 10 9 8 7 6 5 4 2 2 3 4 5 7 8 8 8 8 8 8 9 8 7 7 8 7 5 4 3 4 5 4 4 4 4 4 5 5 5 7 9 10 7 5 4 5 8 9 10 10 10 9 9 7 7 7
17 17 18 19 18 18 18 19 19 19 18 18 18 18 17 17 17 17 17 17 16 15 15 14 14 13 13 12 12 11 10 8 7 6 5 4 2 1 2 3 5 7 9 8 8 9 9 9 9 9 8 8 8 9 8 6 5 4 4 5 5 5 4 4 5 4 3 4 6 8 9 7 6 5 5 6 8 9 9 10 9 9 8 7 7
17 17 17 18 18 18 18 18 19 19 18 18 17 17 17 17 17 17 17 17 16 16 15 15 14 14 13 13 12 11 9 8 6 5 3 3 2 1 2 5 7 9 9 8 9 10 10 9 9 9 9 9 9 9 9 7 5 5 5 5 5 5 5 4 4 3 1 2 5 7 8 6 6 6 4 4 6 6 7 8 9 9 9 8 8
16 17 18 18 18 19 19 19 19 19 19 18 17 17 17 17 17 17 17 17 17 16 16 15 15 14 14 13 12 11 9 8 6 4 3 2 1 2 4 6 8 9 9 9 10 10 9 9 8 8 8 8 8 9 9 7 6 5 5 5 5 5 5 4 3 3 1 1 5 7 6 5 6 6 4 2 3 3 4 5 7 8 9 9 8
15 17 18 18 19 19 19 19 19 18 18 18 18 17 17 17 18 18 17 17 17 17 16 16 15 14 13 13 12 10 9 7 5 3 1 1 1 3 5 7 8 8 8 9 10 9 10 10 9 7 7 7 6 8 8 7 6 4 4 4 4 4 4 4 4 3 3 5 8 6 3 3 5 6 5 4 3 2 3 3 4 6 8 8 8
16 17 18 18 18 18 18 18 18 18 18 18 18 18 17 17 18 18 18 17 17 17 16 15 15 14 13 12 11 9 8 6 5 2 0 2 2 4 5 6 8 8 8 9 10 10 9 10 9 7 7 7 6 6 7 6 5 5 3 3 3 4 4 4 3 2 2 6 6 3 2 3 3 5 5 4 4 3 3 2 2 4 6 8 8
17 18 18 18 17 17 18 18 18 18 18 18 18 18 18 18 18 18 18 17 17 16 16 15 14 13 12 11 9 8 7 5 4 2 2 2 3 4 5 5 7 7 7 9 9 9 9 9 8 7 7 7 6 6 7 6 5 5 4 3 3 3 4 3 3 1 5 6 4 4 3 2 2 4 5 4 4 4 3 2 2 3 4 6 7
17 17 17 18 17 17 18 18 18 18 18 18 17 17 17 18 18 18 17 17 16 16 15 14 13 12 11 9 8 7 5 4 3 2 3 3 2 3 4 4 6 6 7 8 8 8 8 8 9 9 8 7 7 7 7 6 6 6 4 4 3 2 3 5 5 4 7 5 4 5 3 2 2 2 4 4 4 3 3 3 3 3 4 5 5
17 17 17 17 17 17 18 18 18 18 18 17 17 17 17 17 16 16 16 15 15 14 14 13 11 10 9 8 7 6 5 4 3 2 2 2 2 2 3 3 5 5 5 7 7 7 7 7 8 8 7 7 7 7 7 7 7 7 6 5 4 3 4 5 6 5 5 3 3 4 3 3 2 2 3 4 4 3 3 3 3 3 4 5 5
17 17 16 16 16 16 17 17 17 18 17 17 17 16 16 15 14 14 14 14 13 13 12 11 10 9 8 7 6 5 4 3 2 1 1 2 3 3 3 3 4 4 5 6 6 6 6 6 6 6 6 6 7 7 8 8 8 8 7 7 6 5 5 5 6 3 2 2 2 4 4 3 2 2 2 3 4 3 3 3 2 2 2 4 5
16 16 16 16 15 15 16 16 16 17 16 16 15 15 14 14 13 13 12 12 11 11 10 10 9 8 7 6 5 4 4 3 1 0 1 2 2 3 3 3 4 4 4 5 5 5 5 5 5 6 7 7 8 8 9 9 9 9 9 9 9 8 7 7 9 6 3 3 3 3 3 3 1 1 2 2 2 3 3 3 3 2 1 3 3
16 15 15 15 15 14 15 15 15 15 14 14 14 13 13 13 12 12 11 11 10 10 9 9 8 8 7 6 5 5 5 4 2 1 1 2 2 2 3 3 4 4 4 4 4 4 5 5 6 7 8 9 9 9 9 9 9 10 10 11 11 10 10 9 12 11 6 3 3 2 3 3 2 1 1 1 1 1 2 2 2 3 2 2 2
16 15 15 14 14 14 14 14 14 13 13 13 13 12 12 12 11 11 10 10 9 9 8 8 8 7 6 6 5 5 4 2 2 0 1 1 1 1 2 3 4 4 4 4 3 4 4 5 7 8 10 10 10 10 10 11 10 11 11 12 12 11 12 11 12 12 7 4 5 4 4 3 2 2 1 0 1 1 0 1 1 1 3 2 2
16 15 15 14 14 14 14 14 14 14 13 13 12 11 11 11 10 9 9 9 8 8 8 7 7 6 6 5 4 3 3 2 1 1 1 1 1 2 2 2 3 3 4 4 4 4 5 6 8 10 11 11 11 11 12 13 13 13 13 13 13 13 13 13 12 13 10 6 6 6 5 5 4 4 3 2 1 2 2 1 1 1 1 1 2
16 15 15 14 14 14 14 14 14 14 14 13 12 11 11 10 9 9 8 8 8 7 7 7 6 6 5 5 4 3 3 3 2 2 2 3 3 3 3 2 3 3 3 4 5 6 6 7 9 11 11 11 11 12 12 13 14 14 15 14 14 14 14 14 13 13 12 10 9 8 6 6 6 6 5 4 3 3 3 3 2 2 1 0 1
16 15 15 14 14 14 13 13 13 13 13 12 11 11 10 10 9 9 9 8 8 8 7 7 7 6 6 5 5 4 5 5 5 5 5 5 5 5 4 3 4 4 3 4 5 5 6 7 9 10 11 12 12 13 13 14 14 15 14 14 14 13 13 13 13 13 13 13 11 10 9 8 7 7 7 6 6 6 5 5 4 4 3 2 1
16 15 15 15 14 14 14 13 13 13 12 12 11 11 10 10 10 9 9 9 8 8 8 8 8 7 7 7 6 6 6 7 7 6 6 6 6 6 5 5 5 5 4 4 4 5 6 8 9 10 11 12 13 14 15 14 15 14 13 13 13 13 12 12 13 12 12 14 13 12 11 11 9 8 8 8 7 8 8 6 6 6 6 4 2
16 15 15 15 15 15 14 14 13 13 12 12 11 11 11 10 10 10 10 10 9 9 9 9 9 9 8 8 8 8 8 8 8 8 7 7 7 6 6 6 6 6 6 5 5 6 7 8 9 10 12 12 14 16 15 14 15 14 14 15 14 13 12 12 12 12 12 13 12 11 12 12 11 9 8 9 8 8 9 8 7 7 8 7 5
15 15 15 15 15 15 15 14 14 13 13 13 12 11 11 11 11 11 11 10 10 10 10 11 10 10 10 9 9 9 9 9 9 9 8 7 7 7 7 8 7 8 8 7 7 8 8 9 10 11 13 14 16 16 15 14 15 16 17 16 14 13 11 10 10 11 11 12 12 10 10 12 11 10 9 9 9 9 10 10 9 8 9 9 8
15 15 15 15 14 15 15 15 14 14 14 13 13 12 12 12 11 11 11 11 11 11 11 11 11 11 11 10 10 10 10 11 10 9 8 7 7 7 8 8 8 8 8 8 8 9 9 10 12 13 14 15 16 15 14 15 16 18 18 15 13 13 12 11 9 8 8 9 10 8 9 11 11 11 9 8 8 8 10 11 10 9 10 10 10
17 16 16 15 15 15 14 15 15 14 14 14 13 13 13 13 12 12 12 12 12 12 11 11 11 12 12 11 11 11 11 12 11 10 9 8 8 8 8 7 8 8 7 8 8 9 10 11 13 15 16 17 17 15 14 17 19 18 17 13 11 12 12 11 9 7 5 4 7 7 8 9 10 11 10 9 8 8 9 10 11 11 11 11 10
18 17 17 17 16 15 15 15 15 15 15 15 14 14 13 13 13 13 13 13 12 12 12 12 12 13 13 12 11 11 11 11 10 10 9 9 9 9 8 7 8 8 8 8 8 9 12 12 13 15 17 17 16 15 16 19 19 17 14 12 10 10 11 11 9 6 4 2 3 6 7 6 8 10 10 10 9 9 9 10 11 12 12 12 12
17 17 17 17 16 16 16 16 16 16 15 15 15 14 14 14 14 14 14 14 13 13 13 13 13 14 13 12 12 11 11 10 10 10 9 9 10 9 8 8 8 9 9 9 9 10 13 13 15 15 15 15 15 16 18 19 18 15 13 12 10 9 9 9 8 7 5 4 2 3 5 5 6 8 9 10 10 10 10 11 12 13 13 13 13
17 18 18 17 16 16 16 16 16 16 16 16 15 14 14 13 13 14 14 14 14 14 13 13 14 14 13 13 12 11 10 10 9 9 9 9 10 9 8 9 10 10 10 10 9 11 14 14 16 16 15 15 16 17 17 18 17 13 13 11 9 8 9 9 8 8 6 5 4 3 3 4 6 7 8 10 11 11 12 12 12 13 14 14 14
18 18 19 18 17 16 16 16 16 15 16 16 16 15 14 14 13 13 14 14 14 14 13 14 14 14 14 13 11 11 10 10 9 9 10 10 10 10 9 10 10 10 11 11 10 11 14 15 16 16 15 16 17 18 17 17 15 11 10 10 8 8 9 8 8 8 6 5 5 4 4 4 4 6 7 9 11 12 13 13 13 14 14 15 15
21 20 19 19 18 17 16 16 15 16 16 17 17 17 16 15 15 14 14 14 14 14 14 14 14 14 13 13 12 11 11 11 10 10 11 11 10 10 10 10 10 11 13 12 12 12 13 15 16 15 16 17 19 20 18 17 15 11 9 10 9 8 9 9 8 7 6 6 5 3 3 3 4 5 7 8 8 10 13 14 15 15 15 16 16
22 21 20 20 19 18 17 16 15 16 17 17 18 18 17 16 16 15 15 14 14 14 15 15 14 14 13 14 13 12 12 12 11 11 11 11 11 11 12 11 10 13 15 13 14 14 14 15 16 15 16 19 20 20 18 16 17 15 12 11 9 9 9 8 8 7 5 3 4 4 3 3 4 4 5 6 6 8 10 13 16 17 16 16 17
22 22 21 20 20 19 18 17 16 16 17 18 19 18 18 17 17 16 16 15 14 14 15 15 15 15 15 15 14 13 14 13 13 13 12 12 13 13 13 12 11 14 15 14 14 15 15 15 16 17 19 20 20 19 17 15 16 16 14 12 9 8 8 7 7 8 6 3 3 4 3 4 5 4 5 5 6 7 9 10 14 17 18 17 17
22 22 22 20 20 20 19 19 19 18 17 18 19 19 18 18 17 17 16 16 15 15 15 15 15 16 16 16 15 14 14 14 15 15 14 14 14 14 14 14 13 15 15 14 15 16 16 16 17 19 20 20 19 18 16 15 15 14 14 13 10 8 8 7 6 6 7 5 5 4 4 5 6 6 5 6 6 7 8 8 9 13 16 17 18
23 23 22 21 21 20 19 19 19 19 18 17 18 19 18 17 17 17 16 15 15 16 16 15 15 16 17 17 16 15 15 15 16 16 16 15 16 16 15 15 15 14 13 14 16 17 16 16 17 20 21 20 19 17 15 15 14 13 13 11 8 7 6 5 6 7 8 6 6 6 6 6 6 6 6 7 7 7 7 7 7 9 11 13 16
23 23 22 21 20 20 20 19 18 20 19 17 17 17 17 17 17 16 15 15 16 16 16 16 15 16 18 18 17 16 17 17 17 17 15 15 16 16 15 16 15 13 12 15 18 17 15 16 19 20 20 18 18 17 15 14 13 11 11 9 7 6 4 5 7 8 8 7 6 8 10 9 6 6 7 7 7 8 7 7 7 8 10 11 13
23 23 22 21 21 20 20 19 19 19 19 18 16 16 17 17 16 15 15 15 15 16 16 16 16 17 17 17 17 17 17 17 18 17 15 15 15 15 15 14 13 13 15 18 18 16 16 18 18 18 18 16 16 17 15 13 12 9 9 9 7 4 3 5 7 7 6 5 5 7 10 10 8 8 9 9 9 9 8 9 9 9 10 11 12
24 23 23 22 21 21 19 19 19 19 18 18 17 17 17 17 16 16 16 16 15 16 16 16 16 16 17 16 16 17 17 18 17 14 13 13 13 13 13 12 12 15 17 17 16 15 15 16 16 16 16 15 15 15 13 12 11 10 7 7 7 4 2 6 9 7 5 4 3 5 9 9 10 10 10 11 11 10 10 10 11 11 12 12 12
25 25 24 23 22 21 20 20 20 19 19 18 17 17 18 18 18 18 18 17 17 16 16 15 15 16 16 15 15 16 15 14 12 10 10 11 10 11 11 11 12 12 13 13 13 13 13 13 14 14 13 12 13 12 10 10 10 10 7 6 7 4 2 6 10 7 5 4 4 7 10 10 11 11 11 12 12 13 12 12 13 13 13 14 14
27 26 25 24 23 22 21 21 21 20 19 19 18 19 20 19 19 20 19 19 18 17 15 14 14 14 14 14 14 13 11 10 10 9 9 9 8 8 8 8 9 9 9 9 10 10 11 11 12 12 11 10 10 10 10 9 9 9 8 8 7 3 2 5 7 7 7 3 4 6 9 10 11 11 12 13 13 14 13 13 14 14 14 14 15
29 27 25 25 24 23 23 22 22 21 20 20 19 20 21 20 20 19 19 18 18 17 15 14 14 14 13 13 12 11 9 9 8 7 6 5 5 5 4 4 5 5 6 7 7 8 9 10 11 12 11 11 10 10 9 9 8 8 9 9 8 7 9 9 8 9 9 7 7 7 8 9 10 9 11 11 11 12 12 12 13 14 15 15 16
30 28 26 26 26 25 24 23 22 21 21 21 20 21 21 20 19 19 18 17 16 16 16 15 15 13 12 11 10 10 9 8 7 6 5 4 2 1 1 2 3 4 5 5 6 8 9 10 11 12 12 11 10 9 9 8 7 8 9 9 10 10 11 12 13 12 10 10 11 8 7 7 8 9 11 11 10 10 10 12 12 13 14 15 16
30 29 28 28 27 26 24 24 23 23 22 22 21 21 21 21 20 19 19 17 16 16 16 16 16 13 12 11 10 9 8 8 6 6 4 3 2 1 1 2 3 4 4 5 6 8 9 10 11 12 12 11 10 9 8 7 7 7 8 9 10 11 10 10 11 11 11 11 10 7 5 6 10 13 13 12 11 10 10 11 12 14 14 14 15
30 29 28 28 27 26 25 24 24 24 24 23 22 22 22 21 21 20 20 18 17 16 15 15 15 13 12 12 11 10 10 9 7 6 5 3 2 1 1 2 3 4 5 6 8 9 10 11 11 11 12 12 11 10 9 7 7 7 7 8 9 10 9 8 8 8 10 10 7 6 6 7 12 13 10 10 11 11 12 11 12 14 15 15 15
28 29 28 28 28 27 26 25 25 25 24 23 22 22 22 22 21 21 20 18 18 17 16 15 14 13 13 13 11 10 10 9 7 6 5 3 2 1 1 2 3 5 7 8 9 9 10 11 12 12 11 11 11 11 10 9 9 8 8 8 9 9 8 8 8 8 10 11 9 9 8 8 11 11 12 14 14 15 15 13 14 14 14 15 15
26 29 29 29 29 28 27 26 26 26 25 24 23 22 22 22 21 20 19 18 18 17 16 15 14 13 13 12 11 11 11 9 8 7 6 5 4 3 3 3 4 6 7 8 10 10 11 11 12 12 11 11 11 11 11 10 10 10 10 10 9 10 10 9 10 10 11 12 11 12 11 10 13 15 18 20 17 17 16 14 15 15 13 15 16
Wind_Direction
121 120 125 129 127 125 120 121 121 120 121 120 122 125 127 127 124 122 122 124 125 124 127 129 130 131 128 124 123 124 122 117 110 104 101 96 90 84 80 75 69 70 73 72 64 56 55 56 55 55 55 55 59 66 72 74 70 67 62 51 45 45 43 34 33 31 29 36 35 36 38 40 45 139 161 160 161 159 151 149 150 151 106 59 43
126 126 125 126 126 122 120 121 121 122 124 124 126 128 128 128 125 122 122 124 126 128 130 132 132 130 126 125 126 126 124 120 113 107 102 97 93 85 80 74 72 74 76 71 60 52 51 54 53 50 50 53 55 61 67 71 73 74 71 62 46 36 40 35 34 31 32 42 44 43 43 44 53 87 154 163 167 161 145 143 136 126 103 71 65
131 130 126 124 123 122 122 122 122 125 125 126 128 128 128 128 126 123 122 122 126 130 133 134 133 130 127 128 129 129 126 121 116 109 104 102 98 86 79 77 80 81 76 66 54 48 47 48 50 48 47 50 53 55 58 58 63 76 87 87 68 37 34 33 33 30 32 46 47 44 44 43 52 71 108 144 167 168 150 145 130 116 104 89 89
133 133 129 127 124 123 123 122 123 123 125 127 127 127 128 129 128 125 122 121 125 130 134 135 135 132 130 131 132 131 127 123 117 112 109 109 102 87 82 84 88 84 74 61 50 46 44 44 46 47 45 46 50 54 55 52 52 64 83 95 99 65 42 32 33 32 36 49 51 48 49 44 46 63 87 106 125 139 139 134 123 110 102 103 104
134 132 129 130 127 125 123 123 124 123 125 126 126 127 129 130 129 127 125 122 124 129 133 136 138 138 135 134 134 134 132 127 120 114 115 113 101 89 88 90 88 80 70 58 49 43 40 39 40 42 40 39 43 51 53 50 51 54 67 81 94 94 69 43 40 39 40 52 58 52 49 46 43 54 81 98 109 118 123 125 121 113 110 111 108
134 130 127 129 127 126 124 123 123 123 124 124 126 127 129 131 131 130 127 126 127 129 133 136 139 141 139 139 138 138 138 133 126 123 122 112 101 95 92 88 83 77 71 61 52 41 34 32 32 35 34 36 39 44 49 46 46 45 50 68 82 94 87 54 48 48 47 57 65 63 58 52 47 52 76 97 108 115 120 124 124 123 123 119 115
133 131 127 127 127 127 126 125 123 121 122 123 125 125 127 130 132 132 131 131 132 133 133 136 139 141 142 141 142 142 142 140 138 135 127 116 107 99 89 82 79 76 74 68 58 43 30 24 24 27 31 39 43 43 44 38 32 30 36 58 76 84 82 55 49 52 53 62 67 77 78 65 55 59 75 94 106 113 118 120 123 128 127 124 122
133 131 129 127 127 128 129 129 125 122 121 121 122 122 125 129 132 134 135 137 137 137 137 138 140 141 143 144 145 145 146 147 145 138 129 122 113 98 84 80 79 74 76 70 57 48 36 24 19 22 29 39 45 44 38 32 22 20 30 42 62 66 66 52 50 54 57 66 70 82 91 80 63 67 80 94 103 109 114 116 121 125 125 124 121
134 131 129 127 127 129 132 131 126 124 123 122 121 122 124 128 132 135 138 140 140 141 142 143 143 144 145 147 146 146 148 148 144 137 130 125 110 93 81 78 73 68 69 63 54 50 46 36 23 22 27 33 40 39 31 30 23 18 30 40 52 49 51 52 55 59 62 71 74 81 94 93 75 72 84 95 103 109 115 117 118 119 122 122 119
135 132 129 127 127 130 132 130 128 126 125 124 123 124 125 128 132 136 138 140 142 144 146 146 146 148 147 147 146 147 149 147 141 136 131 120 100 82 70 67 63 56 49 48 49 49 51 48 36 26 25 32 37 35 30 33 33 23 31 45 58 53 48 58 73 71 67 72 75 79 85 90 86 84 89 95 104 113 118 118 120 122 124 121 122
135 135 132 130 129 130 131 133 133 131 130 129 128 129 130 133 135 137 140 142 144 145 146 147 148 148 147 146 147 149 147 144 140 136 128 112 95 75 38 43 48 41 37 37 44 45 45 47 41 33 28 34 38 35 35 43 46 30 27 43 53 55 52 59 73 70 72 78 77 79 78 80 86 95 102 101 105 112 119 122 126 128 127 122 123
137 137 134 133 132 130 132 136 138 138 137 136 135 136 137 138 139 141 143 145 145 146 147 148 149 148 148 149 148 147 144 143 139 133 124 115 113 90 21 34 41 38 35 30 38 42 41 43 40 38 32 35 39 36 39 50 53 43 38 44 47 47 47 54 61 58 71 87 79 79 77 73 75 85 113 117 108 108 116 126 131 131 132 131 131
138 139 136 136 136 134 134 138 141 142 142 142 141 141 143 143 142 144 144 144 144 146 149 150 151 150 151 149 146 145 143 143 139 137 135 146 158 97 41 42 43 38 31 24 34 39 41 41 38 38 34 36 42 41 46 56 57 49 44 43 42 39 36 40 58 61 42 101 91 81 77 72 68 79 107 127 115 110 111 123 132 134 138 141 142
140 140 137 137 137 136 137 139 141 143 144 144 145 145 146 146 144 144 143 141 143 145 149 150 151 150 150 148 147 146 145 146 145 152 166 193 204 55 44 43 44 38 29 27 34 34 30 30 32 37 34 35 44 47 50 59 64 53 42 38 35 34 32 21 38 63 348 19 72 65 65 63 65 78 87 96 111 120 113 116 127 134 140 143 142
139 140 141 140 137 137 139 139 141 143 145 146 147 148 148 147 144 143 143 142 145 148 150 151 151 150 150 150 148 147 147 149 154 165 200 276 348 35 38 39 49 46 32 38 43 31 22 25 28 35 31 28 41 50 51 56 63 56 48 43 36 34 30 15 23 37 349 16 47 58 73 64 59 73 75 78 93 117 125 121 120 131 138 136 136
139 141 143 142 138 138 140 140 142 145 147 147 148 149 148 146 144 144 144 146 149 150 151 152 152 152 152 151 149 149 150 152 156 159 343 347 10 34 37 40 56 56 39 43 45 31 26 31 30 31 30 28 33 37 41 48 54 54 55 48 36 30 22 19 19 27 58 43 45 69 101 87 73 74 71 73 87 108 142 152 121 130 137 132 133
141 141 142 141 139 139 142 143 145 147 147 147 149 149 148 147 147 147 148 150 152 153 153 153 154 155 154 153 152 153 152 151 149 124 49 15 18 33 34 41 57 59 47 45 41 33 35 39 38 37 32 28 26 22 26 33 42 48 50 49 30 14 3 355 326 14 86 67 46 65 74 80 89 83 79 67 74 101 135 161 158 152 148 138 134
143 140 140 141 141 142 145 147 147 148 148 148 150 148 148 149 149 150 152 153 154 154 154 156 157 157 156 157 158 159 156 155 150 113 59 28 20 26 28 38 50 53 49 46 42 40 44 44 44 46 40 31 28 25 25 26 33 39 38 39 27 10 347 324 316 6 60 59 40 56 59 60 76 79 80 70 64 85 111 144 168 176 164 155 149
145 141 140 141 143 147 149 150 148 147 148 150 151 150 150 151 151 151 153 154 154 156 156 158 158 159 161 163 167 170 167 167 159 108 54 26 16 8 11 18 34 44 40 37 41 45 47 46 43 42 39 32 26 19 16 15 18 20 19 18 8 356 327 318 327 355 36 49 45 49 50 59 61 54 62 65 62 63 77 111 155 180 179 176 170
147 144 142 143 145 149 150 150 148 148 151 152 151 151 151 151 151 152 153 155 156 158 158 159 161 165 168 173 181 184 183 186 175 105 34 24 16 355 349 356 14 32 31 25 29 37 43 39 30 23 15 11 6 359 354 354 357 356 358 356 345 338 325 326 313 299 56 35 25 36 41 60 61 55 50 50 53 52 64 80 114 164 190 194 188
148 147 147 149 151 152 152 152 153 154 154 153 152 152 152 152 154 155 156 158 160 161 161 165 169 174 179 184 191 197 203 203 195 151 52 36 17 355 346 347 1 18 22 15 13 16 20 15 6 359 352 348 344 340 338 338 341 339 339 336 332 331 327 330 309 304 44 15 337 17 16 37 43 63 67 52 50 43 59 84 100 114 159 199 205
153 152 155 154 155 156 155 157 157 157 157 155 156 156 156 157 158 160 160 161 163 165 168 173 177 183 188 192 199 211 209 184 168 159 78 50 19 2 344 339 350 3 9 7 7 358 353 351 348 347 342 338 335 334 335 333 334 330 328 324 325 328 324 328 317 321 15 9 329 352 338 0 0 338 56 76 88 45 43 72 104 121 134 165 194
159 158 161 159 158 160 160 163 162 160 161 162 162 163 163 163 162 162 163 164 169 173 177 181 185 191 196 200 209 229 233 176 136 58 56 53 3 339 317 330 338 342 350 346 349 346 341 343 344 343 339 338 337 337 337 333 331 326 322 319 319 322 319 321 315 316 343 356 334 331 311 313 306 296 279 196 173 205 32 29 22 115 133 142 152
164 165 166 164 164 166 166 168 169 167 167 168 169 169 169 168 166 167 170 172 177 180 185 188 191 197 203 212 219 244 289 329 3 343 346 293 285 274 284 314 325 330 342 341 354 354 342 346 346 343 340 340 338 337 337 331 328 324 319 316 315 314 312 312 311 313 322 329 325 319 307 296 286 283 264 243 238 233 230 232 300 351 96 134 145
168 171 170 170 171 171 172 173 174 172 172 174 173 175 176 174 173 178 183 185 187 190 194 198 201 206 211 222 231 240 271 285 275 249 237 255 265 276 296 317 334 344 349 351 8 358 343 348 346 342 343 341 336 334 331 326 322 319 316 313 310 309 307 305 303 304 305 304 305 303 299 292 283 278 269 255 245 237 237 239 249 277 316 151 174
173 175 175 175 176 175 175 177 179 176 176 179 178 182 182 180 185 190 194 196 200 201 203 209 211 215 218 226 235 237 246 255 254 242 238 245 253 276 292 294 317 335 339 341 354 347 340 342 340 341 344 338 333 331 326 321 317 316 314 310 308 307 305 301 299 297 294 290 288 288 288 287 281 275 270 262 251 246 246 241 246 255 257 260 247
175 177 178 179 180 180 179 181 183 181 182 185 184 187 187 188 194 197 201 204 208 209 211 217 219 222 225 230 235 238 244 249 249 246 246 246 251 271 282 285 300 311 326 328 324 333 336 331 334 340 341 336 332 328 323 319 316 314 311 309 307 304 300 295 293 293 289 284 281 281 281 279 275 272 267 263 256 255 258 252 247 248 246 245 248
180 181 182 184 184 185 185 185 188 187 188 188 189 191 193 196 200 202 206 209 213 216 219 222 226 228 229 231 234 239 244 246 246 245 245 249 257 270 279 291 300 304 316 315 309 324 328 323 330 336 333 332 329 326 321 316 311 309 309 312 314 310 305 298 290 286 281 276 277 279 277 272 268 267 264 262 259 255 260 259 250 244 242 239 238
185 185 187 189 189 190 190 191 193 194 193 192 193 194 198 202 203 206 210 214 217 219 224 228 231 233 233 234 236 240 242 243 245 243 243 251 263 274 282 291 299 302 306 307 308 314 316 319 323 326 324 324 326 323 317 309 305 307 311 316 320 322 321 313 300 290 277 265 265 269 271 267 261 261 261 260 261 257 256 256 251 247 243 235 231
189 190 192 192 194 195 194 196 197 199 198 197 199 200 204 205 206 209 212 215 219 221 227 231 234 238 238 238 240 242 244 247 248 248 251 258 268 274 277 285 292 294 299 304 304 306 311 315 316 317 319 321 324 319 310 305 307 312 314 316 319 324 329 328 315 295 278 255 250 255 262 259 251 252 258 257 259 259 256 255 253 249 244 234 230
193 193 194 195 197 198 199 200 201 203 203 204 206 208 210 210 210 215 218 220 223 226 229 232 237 243 245 242 243 245 247 251 253 254 259 267 272 274 275 279 283 288 295 295 297 304 307 311 313 315 320 324 325 315 306 305 309 315 315 316 320 324 331 337 330 310 298 257 239 243 251 249 241 243 249 252 254 254 253 253 252 248 244 236 232
198 196 197 198 197 201 205 205 207 208 207 208 212 215 216 216 218 222 225 228 230 232 232 233 237 244 249 247 245 248 249 253 256 259 266 275 278 278 278 276 275 282 286 285 296 305 305 309 311 315 322 324 320 311 307 309 313 318 316 318 324 323 327 336 337 330 326 307 239 236 245 240 232 236 242 246 247 248 248 247 248 248 247 242 238
202 200 201 202 201 205 209 210 211 212 212 213 216 220 221 222 225 228 232 234 236 237 236 236 238 244 250 249 247 249 250 254 257 263 270 274 276 279 280 280 277 277 279 285 301 304 303 309 310 316 322 315 310 307 307 313 318 318 314 318 323 320 324 330 339 345 338 334 315 255 254 246 239 241 242 245 245 246 246 243 243 244 245 244 242
205 203 204 204 205 208 209 211 213 215 216 216 217 221 223 224 229 233 235 235 236 238 237 238 239 243 248 249 250 251 254 257 260 267 272 273 275 280 283 283 280 281 288 295 306 305 303 309 310 315 316 307 305 301 301 310 315 312 309 313 315 316 319 323 339 347 341 347 353 340 313 280 265 260 253 251 250 250 250 247 244 242 242 243 244
206 207 207 206 208 208 209 212 213 216 219 218 218 220 221 224 227 231 233 234 234 234 235 236 238 241 245 249 250 252 254 257 261 265 269 273 276 281 285 285 287 294 297 297 303 303 302 308 311 311 308 304 300 296 301 311 311 304 299 302 306 310 312 316 332 337 335 350 354 347 337 314 295 286 273 261 254 252 253 251 248 245 243 243 245
207 208 208 208 208 208 210 213 214 216 219 220 220 219 220 223 225 228 231 233 232 232 232 234 237 240 244 249 249 252 255 256 261 264 268 274 279 285 283 285 301 305 298 301 308 306 304 306 307 303 300 298 295 296 306 313 308 302 297 297 301 302 303 312 326 332 334 339 333 328 329 313 303 300 291 277 263 254 251 251 250 249 247 245 245
210 210 210 210 209 210 211 213 215 218 220 222 222 222 222 224 226 228 231 233 231 232 234 235 239 242 245 249 249 250 256 259 262 266 271 276 281 282 279 283 301 301 300 311 312 306 303 298 294 292 292 294 294 300 310 310 304 304 305 303 301 297 301 313 322 326 328 317 302 299 292 293 293 284 281 283 278 261 253 252 249 248 248 248 248
212 212 212 213 212 213 214 214 214 218 223 225 225 225 225 226 228 228 230 233 232 233 235 236 240 244 247 249 251 253 257 262 266 270 274 277 280 279 280 285 291 293 300 309 304 299 295 286 282 285 287 292 296 303 309 305 302 305 307 305 299 289 293 305 313 315 311 275 271 286 276 276 281 268 253 258 269 266 262 262 255 250 249 249 252
213 214 213 215 216 215 216 217 215 218 223 228 229 227 227 228 229 230 231 233 233 234 236 238 240 244 249 250 253 258 263 266 269 274 276 278 280 278 280 284 284 289 297 299 294 290 286 279 279 283 287 294 299 303 307 303 301 302 300 300 294 281 281 283 284 292 293 278 259 257 257 254 250 253 248 237 249 261 259 262 258 252 253 254 254
215 216 217 219 221 219 219 222 221 220 224 231 231 228 228 228 230 231 233 235 236 237 238 240 243 247 252 255 256 261 266 270 272 275 276 278 279 277 279 279 277 284 291 290 284 277 273 276 281 287 292 297 300 300 302 302 300 298 296 296 288 278 278 270 261 266 274 271 248 236 245 249 238 243 249 236 236 249 253 252 245 239 246 256 259
219 220 222 226 228 225 224 227 228 225 227 233 234 231 229 229 230 231 233 237 239 240 242 243 245 249 254 258 261 263 267 271 271 271 272 273 273 272 272 272 275 284 286 278 274 270 271 281 289 293 295 298 299 298 300 299 299 299 296 296 286 267 268 270 260 261 266 266 258 250 248 250 250 252 255 251 245 244 250 255 246 236 238 247 257
226 226 228 231 233 232 231 232 233 233 233 234 235 233 230 230 230 229 230 235 240 243 244 245 247 250 255 260 264 266 267 268 268 267 267 267 268 269 267 265 268 271 268 265 271 278 286 290 292 292 292 296 297 295 297 297 296 294 296 306 300 264 260 278 267 265 272 271 269 262 251 248 254 259 257 257 258 254 251 251 250 247 245 243 246
229 230 231 234 236 237 238 238 237 239 238 236 235 233 232 230 227 226 227 230 237 240 243 245 248 253 258 262 266 268 268 267 265 265 266 262 260 264 264 261 258 259 262 268 279 288 291 291 289 289 291 293 290 288 291 293 291 292 302 313 303 280 289 299 287 272 263 267 262 254 253 253 257 260 260 258 260 263 258 253 252 253 254 254 251
233 233 234 236 238 241 243 243 243 243 243 241 236 230 229 229 225 225 227 227 230 236 240 244 249 255 261 266 268 268 267 263 257 253 255 253 252 257 264 267 268 271 277 284 290 291 291 289 288 290 291 291 292 292 293 290 286 289 289 278 284 307 347 298 291 280 272 282 263 256 259 259 261 262 265 268 269 269 266 260 255 252 254 257 259
238 238 238 238 240 242 244 244 244 245 246 245 237 228 227 227 225 225 227 227 230 234 240 244 250 257 262 265 268 264 257 249 240 236 242 247 253 262 269 277 283 291 295 296 297 297 297 297 297 300 302 302 301 300 297 289 282 281 274 263 266 275 244 254 268 284 292 270 225 263 272 259 261 266 267 272 277 277 273 267 261 257 255 255 257
241 241 241 241 242 242 243 243 244 245 246 244 236 228 227 227 225 225 228 230 231 235 238 242 247 252 252 253 257 252 237 231 229 227 235 242 250 262 274 296 308 315 314 312 311 311 312 313 315 316 318 316 308 300 294 287 280 274 271 268 257 243 239 237 248 274 282 263 249 279 288 268 264 269 271 273 274 278 279 275 269 264 261 260 260
241 240 240 242 243 243 242 242 243 244 245 242 235 228 226 224 221 221 224 227 230 234 237 237 237 240 240 237 238 235 223 219 217 205 207 212 209 237 324 350 348 343 335 333 330 331 334 332 329 327 324 319 311 302 294 289 284 277 273 271 264 255 247 244 255 269 277 278 276 284 288 277 273 277 280 278 273 274 278 279 278 273 269 267 268
241 241 240 241 243 243 241 241 242 244 244 241 234 227 224 221 217 216 219 222 226 232 236 234 229 227 223 218 219 219 206 199 195 182 178 173 160 126 44 17 2 358 351 352 352 349 347 342 336 331 324 320 315 308 304 301 291 283 279 272 268 266 260 253 258 269 277 282 288 297 289 275 287 293 288 280 279 279 275 276 279 278 276 274 274
242 241 239 240 241 240 239 240 240 242 243 239 232 225 221 219 216 215 218 221 223 227 231 228 222 214 209 209 210 204 192 187 183 172 168 166 164 164 39 15 5 4 2 359 359 356 351 346 340 333 327 322 321 319 318 315 301 293 288 277 270 267 267 268 267 271 278 281 288 286 273 286 299 301 294 283 288 296 293 287 283 280 279 277 275
241 241 237 236 237 236 236 237 239 240 240 235 229 220 216 215 214 213 216 219 220 221 222 218 212 208 207 207 205 199 194 192 189 186 188 199 220 246 301 346 355 0 2 359 356 355 353 350 343 337 332 326 324 323 322 318 309 304 298 288 280 273 272 276 278 274 277 281 274 259 269 301 299 293 296 296 301 308 308 305 300 293 288 284 281
237 239 235 232 232 232 232 234 236 236 234 231 225 217 211 212 212 212 214 216 219 219 217 212 208 208 210 209 207 206 206 204 204 211 217 226 241 261 291 322 338 344 348 349 348 347 347 349 344 338 332 328 325 321 318 314 309 305 299 291 284 280 275 270 271 272 272 275 269 262 269 275 268 273 287 294 302 310 310 311 307 301 298 297 295